Location: Unspecified
(49.2170°N, 0.0000°E)
Time: 13:24:19
(UTC+00:00)

Vanguard 3 - Pass Details

Date: 23 January 2021
Orbit: 508 x 3261 km, 33.3° (Epoch: 28 February)

Event Time Altitude Azimuth Distance (km) Brightness Sun altitude
Rises 03:12:43 0° 206° (SSW) 3,498 - -43.3°
Reaches altitude 10° 03:15:47 10° 186° (S) 2,905 - -42.8°
Exits shadow 03:20:28 18° 146° (SE) 2,865 10.0 -42.1°
Maximum altitude 03:20:28 18° 146° (SE) 2,866 10.0 -42.1°
Drops below altitude 10° 03:26:53 10° 108° (ESE) 4,188 11.2 -41.1°
Sets 03:32:41 0° 94° (E) 5,785 12.3 -40.2°
